Flag for United Kingdom Weather past 2 weeks in London, England, United Kingdom

Now
66 °F

Low clouds.


Feels Like: 66 °F
Forecast: 58 / 73 °F
Wind: 6 mph from Northeast

Location: Northolt

Current Time: Sep 19, 2014 at 11:18:15 AM

Latest Report: Sep 19, 2014 at 10:50 AM


Visibility: 4 mi

Pressure: 29.86 "Hg

Humidity: 83%

Dew point: 61 °F

Location of LondonLocation

Historic Weather in London — Graph

°F

London temperature yesterday

Maximum temperature yesterday: 77 °F (at 2:50 PM)
Minimum temperature yesterday: 59 °F (at 2:50 AM)
Average temperature yesterday: 67 °F

Past Weeks' High & Low Weather Summary

 TemperatureHumidityPressure
High77 °F (Sep 18, 2:50 PM)100% (Sep 7, 1:50 AM)30.33 "Hg (Sep 7, 1:50 AM)
Low46 °F (Sep 8, 6:50 AM)40% (Sep 8, 5:50 PM)29.77 "Hg (Sep 18, 2:50 PM)
Average62 °F76%30.06 "Hg
* Reported Sep 4 9:50 AM — Sep 19 9:50 AM, London, Weather by CustomWeather, © 2014

Note: Actual official high and low records may vary slightly from our data, if they occured in-between our weather recording intervals... More about our weather records

Advertising

London weather history for previous 24 hours

 ConditionsComfort  
Time TempWeatherWind HumidityBarometerVisibility
9:50 AM
Sep 19
64 °FPartly sunny.3 mph88%29.86 "Hg3 mi
8:50 AM63 °FBroken clouds.7 mph94%29.83 "Hg3 mi
7:50 AM61 °FBroken clouds.3 mph94%29.83 "Hg2 mi
6:50 AM61 °FFog.5 mph94%29.83 "Hg2 mi
5:50 AM61 °FPassing clouds.3 mph94%29.83 "Hg2 mi
4:50 AM61 °FLow clouds.6 mph94%29.80 "Hg2 mi
3:50 AM61 °FPartly cloudy.9 mph100%29.83 "Hg2 mi
2:50 AM63 °FPartly cloudy.10 mph94%29.80 "Hg2 mi
1:50 AM64 °FPassing clouds.8 mph88%29.83 "Hg2 mi
12:50 AM63 °FPassing clouds.6 mph94%29.83 "Hg3 mi
11:50 PM
Sep 18
64 °FPassing clouds.6 mph88%29.83 "Hg4 mi
10:50 PM64 °FClear.6 mph88%29.83 "Hg4 mi
9:50 PM66 °FClear.8 mph83%29.80 "Hg10 mi
8:50 PM68 °FClear.6 mph73%29.80 "Hg10 mi
7:50 PM72 °FSunny.8 mph65%29.80 "Hg10 mi
6:50 PM73 °FScattered clouds.8 mph61%29.80 "HgN/A
5:50 PM77 °FScattered clouds.10 mph51%29.77 "HgN/A
4:50 PM77 °FBroken clouds.8 mph51%29.77 "HgN/A
3:50 PM77 °FPartly sunny.13 mph51%29.77 "HgN/A
2:50 PM77 °FScattered clouds.12 mph54%29.77 "HgN/A
1:50 PM75 °FBroken clouds.12 mph57%29.80 "HgN/A
12:50 PM73 °FSunny.13 mph61%29.80 "Hg10 mi
11:50 AM70 °FPartly sunny.12 mph69%29.80 "Hg5 mi
Weather by CustomWeather, © 2014

See weather overviewHow to use our weather pages